Theta_e
352 353 355 354 350 353 356 355 355 354 354 353 353 352 351 351 350 348 343 342 346 339 339 338 340 342 340 341 344 343 341 341 344 343 343 342 340 337 336 337 337 340 343
354 355 356 354 355 353 354 355 355 355 354 353 353 353 352 352 351 350 348 346 347 344 341 341 339 342 341 342 343 342 342 343 340 341 343 343 340 339 336 336 337 338 341
355 355 353 354 349 353 353 352 351 355 354 354 352 349 347 347 346 347 347 347 349 347 341 342 340 341 343 343 341 341 341 342 341 340 341 341 340 339 338 336 335 336 337
356 353 353 352 349 346 352 351 351 354 354 353 352 349 349 347 346 350 350 349 348 344 343 343 341 341 345 345 346 341 339 343 338 338 339 339 340 339 338 337 335 336 335
356 356 354 351 348 350 354 352 350 354 355 353 353 354 352 352 348 350 349 346 346 338 342 341 341 341 342 345 344 341 342 341 339 334 337 336 338 339 338 338 337 336 336
355 351 356 355 352 352 354 351 353 354 355 355 352 352 353 353 350 351 348 346 339 338 334 337 338 340 342 343 340 340 341 341 339 339 339 335 340 338 339 338 338 336 336
356 355 354 355 355 354 353 355 356 356 350 354 353 353 353 351 351 351 348 347 335 333 334 338 336 339 341 341 341 341 341 340 341 339 339 338 335 336 339 338 338 337 338
356 354 351 354 357 357 356 355 357 355 355 355 353 350 346 347 349 349 349 346 338 332 338 338 338 337 338 339 339 339 339 339 341 341 339 338 337 334 335 334 338 338 338
354 354 353 353 357 356 356 356 355 357 356 355 355 353 347 346 342 345 348 346 337 336 338 336 337 336 335 334 335 336 336 337 338 340 340 338 335 333 332 336 336 339 338
353 355 353 354 353 356 358 356 356 359 358 356 354 353 352 351 347 347 344 343 340 338 335 336 336 335 337 337 336 337 337 338 338 338 339 335 335 336 337 337 336 334 339
355 353 352 355 355 356 356 357 357 359 356 355 354 357 354 351 350 346 345 339 337 335 334 336 336 336 335 336 336 337 336 337 338 338 336 334 334 333 333 335 335 336 338
357 353 353 353 353 355 358 358 358 355 354 353 355 354 353 351 349 346 343 340 336 337 337 338 335 335 336 335 334 336 337 338 338 337 335 333 333 332 332 333 333 334 336
357 355 354 355 355 356 358 359 354 353 353 354 356 356 355 354 353 351 346 339 335 337 337 336 335 335 334 331 330 334 337 336 337 336 333 332 333 332 331 330 330 331 333
354 356 356 355 356 357 358 353 351 354 354 358 358 358 358 354 355 354 349 340 337 338 336 335 335 334 330 327 330 334 337 336 333 330 331 325 328 328 327 328 330 328 331
355 357 357 354 358 357 350 352 354 355 357 359 358 356 356 356 355 353 350 343 339 340 337 335 335 330 327 325 329 332 333 332 331 331 331 330 331 331 330 328 327 325 329
354 356 355 352 353 351 350 353 356 356 359 359 355 357 356 355 355 350 346 344 340 337 336 335 333 330 326 325 328 329 330 331 331 331 331 330 328 325 324 325 324 324 331
348 352 355 356 351 353 353 356 358 357 356 355 355 355 353 352 352 349 345 343 339 337 332 332 330 329 325 324 326 327 328 329 329 329 330 328 328 326 326 325 324 329 330
350 347 348 356 356 356 355 359 359 358 356 354 354 352 348 346 349 347 344 342 337 335 333 329 329 327 324 323 324 326 326 326 327 326 327 327 326 326 325 325 325 329 330
353 350 356 359 358 356 355 359 360 359 356 355 353 350 346 347 346 346 345 341 336 333 331 329 328 325 326 323 321 320 320 320 322 322 323 325 326 323 324 324 324 330 331
354 353 350 352 355 354 354 360 360 359 355 354 351 349 346 347 347 347 343 340 335 333 331 328 327 325 326 327 325 322 319 319 320 321 322 322 322 323 322 323 324 326 332
353 354 354 351 350 352 356 360 360 359 354 352 351 347 345 346 346 346 344 339 335 332 329 327 327 326 326 325 325 323 323 320 319 319 321 322 322 323 325 324 323 324 326
356 355 355 356 354 356 358 359 360 357 353 352 350 346 344 345 345 345 343 339 336 332 329 327 328 326 326 327 326 325 322 321 320 320 319 319 320 321 323 324 325 324 324
356 356 356 354 357 356 358 360 360 354 353 352 349 345 343 344 343 343 340 336 334 333 331 329 329 328 326 326 326 326 325 323 324 322 321 320 320 321 321 322 324 324 326
357 357 356 355 355 357 360 361 359 352 352 350 347 344 343 343 341 341 337 335 334 333 332 331 330 329 327 327 327 326 326 325 327 324 324 324 325 326 325 325 324 324 327
358 357 358 357 357 357 359 361 354 351 351 347 345 343 341 342 342 338 335 334 334 334 333 333 333 332 329 327 328 328 327 327 324 324 326 326 326 326 326 326 326 324 323
356 359 359 357 356 353 350 348 348 352 348 345 344 343 341 340 340 337 335 332 333 333 332 333 334 332 331 330 329 329 327 328 326 325 326 327 326 327 326 326 326 325 323
Wind_Speed
7 7 8 8 10 10 10 11 15 15 18 19 20 21 22 21 22 21 24 27 22 20 18 12 20 18 21 24 26 28 28 29 27 26 24 24 23 23 21 19 17 17 18
9 11 9 9 11 12 9 7 8 12 12 14 18 21 23 24 21 21 23 24 24 24 25 21 22 19 22 24 26 28 29 29 27 26 25 24 23 24 23 21 18 17 18
12 10 10 10 11 9 8 7 7 8 11 12 15 12 12 14 18 20 23 22 20 21 24 23 26 24 22 23 24 24 28 31 25 24 23 23 23 23 25 23 21 19 19
11 10 10 9 6 8 8 7 9 6 8 10 11 14 12 13 16 18 20 21 18 16 19 23 25 26 25 23 22 25 27 27 27 22 23 24 23 24 22 25 24 21 19
12 12 10 7 5 6 7 6 7 8 9 9 11 13 13 14 16 17 17 15 13 14 16 19 21 23 23 21 17 17 21 25 29 32 29 22 24 26 26 24 25 24 22
13 12 13 11 6 6 5 6 8 10 11 13 15 12 15 16 16 16 16 14 14 12 13 17 21 22 17 17 18 17 21 22 23 26 29 33 24 24 25 26 26 26 24
17 18 15 14 10 10 8 8 11 11 11 10 12 13 12 12 10 15 16 17 15 13 16 20 19 12 9 9 11 14 19 20 21 22 26 29 33 26 24 24 26 28 27
14 16 14 13 8 6 7 11 13 10 9 10 5 4 3 4 8 14 17 19 18 16 18 16 6 6 6 6 6 7 11 16 20 22 22 25 27 30 26 26 25 27 28
16 16 15 15 13 12 8 10 10 11 12 12 6 5 2 3 3 5 18 21 18 17 13 9 7 7 8 8 9 10 11 12 15 19 25 25 25 28 29 23 26 24 25
19 19 16 15 16 14 12 11 9 12 13 12 13 8 11 8 2 3 4 8 11 10 8 6 6 7 8 9 10 12 12 14 17 19 27 26 25 21 21 15 21 22 21
18 20 17 16 16 17 16 14 13 10 12 13 11 11 8 8 8 5 3 2 2 1 2 2 4 5 7 9 10 11 11 11 13 12 18 19 19 20 15 13 13 15 20
14 18 19 19 19 18 16 14 14 11 10 10 9 9 9 5 4 5 3 1 1 2 1 1 3 7 8 8 9 9 7 8 13 18 18 17 19 19 22 17 15 15 16
13 13 15 21 24 19 14 14 11 12 10 8 9 10 9 9 9 9 6 2 2 2 1 1 4 5 7 9 9 8 5 3 11 22 17 16 16 16 22 17 14 12 14
12 5 6 9 9 12 13 13 11 11 9 7 9 10 10 9 7 9 6 6 2 1 2 1 4 5 8 10 9 7 9 14 13 15 18 11 13 9 12 17 12 8 13
16 14 12 11 12 12 13 12 12 11 8 9 10 10 9 8 7 8 7 6 7 2 1 3 2 4 7 8 9 8 8 7 10 12 13 15 15 15 13 11 13 10 10
21 18 16 11 12 12 12 11 12 11 9 8 10 8 8 8 6 4 1 3 5 6 2 3 3 4 7 8 11 10 9 10 12 13 14 15 14 14 13 10 11 10 13
25 23 18 15 16 14 11 11 12 13 12 7 8 7 8 7 6 2 1 4 3 6 7 6 11 8 8 9 11 12 12 12 9 7 10 16 16 13 11 13 10 7 11
26 25 23 19 18 15 12 12 12 13 8 5 6 7 10 9 3 1 3 4 5 10 18 14 13 8 11 10 11 13 14 12 10 9 8 13 10 10 9 11 11 6 12
28 25 21 20 18 17 14 13 13 13 8 6 4 4 7 4 2 3 4 7 9 15 20 20 11 12 12 10 10 11 12 11 9 7 8 9 9 9 12 10 11 9 12
29 29 28 27 23 21 18 15 15 12 10 7 4 2 3 3 4 6 7 9 15 17 19 18 16 13 11 7 6 9 10 8 7 6 7 10 8 7 8 9 11 10 11
26 28 28 25 24 21 19 16 16 14 12 9 6 2 1 2 4 7 10 13 17 20 21 19 12 9 9 10 9 5 8 6 4 4 6 9 8 8 9 8 10 10 11
29 26 26 25 23 23 21 18 19 16 13 11 9 4 2 4 4 5 8 12 15 22 22 16 10 13 13 11 10 9 10 6 1 4 6 7 7 6 7 7 7 8 9
29 30 27 25 27 26 23 21 19 17 16 14 10 7 4 6 7 8 11 13 15 13 14 18 18 17 15 15 14 12 9 6 1 7 5 5 7 8 6 6 7 7 8
27 29 30 31 30 28 26 24 21 19 18 15 12 8 5 7 10 14 17 18 14 12 13 12 12 14 12 14 13 12 10 6 1 9 3 3 7 7 8 8 7 7 8
21 28 31 31 31 30 29 25 22 20 18 14 10 9 7 8 13 17 17 19 15 12 10 12 12 12 12 12 12 12 13 8 1 7 8 1 5 5 7 7 7 6 6
20 23 23 17 14 17 16 19 19 22 20 15 12 12 8 6 14 17 16 17 14 12 10 11 11 14 14 13 13 13 12 12 5 4 11 6 9 4 2 6 8 7 8
Wind_Direction
258 248 266 280 285 280 294 274 265 277 268 269 271 275 279 280 277 278 269 264 273 264 254 269 271 265 260 249 246 237 236 231 225 220 212 209 203 199 200 199 204 195 191
267 250 260 263 266 274 282 282 279 274 274 274 276 280 280 282 278 272 272 269 262 257 252 255 281 266 256 257 248 241 239 229 226 225 217 211 209 205 205 201 204 202 199
264 258 261 270 282 252 266 281 331 282 256 279 281 281 286 281 278 279 278 275 269 257 254 256 273 281 266 256 252 248 248 235 222 226 224 215 213 213 206 205 206 199 199
259 261 267 286 244 254 289 256 299 300 271 283 276 273 285 299 295 288 283 277 267 264 263 260 277 290 278 259 249 248 243 226 217 224 230 220 212 213 213 209 207 198 196
256 264 275 283 275 258 287 283 298 300 293 296 303 289 291 305 292 272 267 261 249 251 259 272 282 284 284 257 233 237 224 221 216 227 225 218 223 212 207 214 211 202 196
257 266 266 281 278 269 279 284 292 304 301 305 315 311 306 298 286 261 255 239 233 244 274 286 290 294 290 243 239 256 219 218 218 224 229 216 216 213 203 212 212 206 200
247 258 272 266 276 272 267 272 286 299 293 307 310 305 295 301 269 253 251 235 245 269 293 303 297 298 291 260 258 234 225 224 231 224 217 221 217 213 205 211 217 212 207
247 256 258 258 263 272 275 261 273 279 278 297 293 308 328 312 259 250 241 240 255 273 303 311 300 284 282 268 256 244 249 246 237 230 224 220 211 205 201 207 216 220 209
262 253 253 252 249 261 269 275 276 268 286 315 292 261 313 258 318 274 244 246 261 284 297 285 263 278 291 291 278 268 262 252 241 237 228 203 205 205 202 210 205 213 212
272 258 255 252 247 255 268 297 304 294 298 300 316 297 269 270 255 318 266 267 260 280 282 252 264 296 307 309 295 279 268 260 248 253 246 179 165 161 166 170 193 199 218
287 254 255 252 260 266 274 289 308 294 293 297 300 300 307 296 275 238 289 248 215 311 255 254 289 312 314 317 315 300 281 262 232 182 163 166 173 185 193 188 180 194 209
299 251 260 263 265 273 275 277 291 294 296 299 305 311 303 291 288 243 246 207 133 66 140 144 338 331 339 339 331 325 286 255 215 188 179 178 190 194 192 192 202 202 204
305 276 269 273 262 262 267 282 285 297 298 306 316 317 312 307 297 282 252 162 137 152 171 28 14 14 355 353 2 9 3 190 187 162 162 182 180 187 195 193 184 178 206
271 277 289 277 235 241 265 271 285 283 284 300 308 312 308 313 303 290 257 159 115 135 162 150 33 24 6 12 27 44 79 121 137 163 180 188 154 164 170 184 180 151 217
255 252 274 269 248 241 266 265 271 279 286 305 310 312 306 307 303 318 303 202 158 153 139 161 73 39 25 33 48 72 97 125 143 153 166 178 169 161 141 149 174 194 209
250 258 265 256 244 242 259 258 264 284 289 302 310 307 316 319 319 332 59 173 184 150 124 125 106 112 63 68 67 84 97 106 131 141 146 150 166 183 178 135 134 198 201
245 250 257 251 230 247 264 260 270 283 293 306 314 323 328 329 329 358 140 152 170 171 127 105 132 121 92 84 85 91 98 104 108 131 171 179 151 145 151 176 166 177 184
249 246 250 235 240 253 265 266 270 285 290 288 301 325 340 342 338 173 165 158 156 149 140 132 139 122 108 102 96 98 94 95 101 109 127 140 160 171 165 155 164 157 175
250 244 238 236 243 255 265 260 270 279 268 265 268 314 342 8 219 199 182 161 154 149 151 147 136 138 133 121 107 106 101 103 102 111 119 125 145 153 166 162 173 160 161
250 249 244 245 250 259 260 255 265 267 244 237 239 297 347 91 198 207 185 164 156 153 153 146 140 147 148 152 147 121 110 116 124 130 133 126 133 132 150 164 167 162 158
247 252 252 248 248 248 244 248 258 252 229 221 220 257 6 167 205 200 190 169 167 157 156 151 144 158 171 160 165 168 123 127 147 165 155 130 128 131 137 155 169 173 163
256 250 251 251 246 242 236 240 253 239 227 219 209 201 175 182 203 195 186 175 177 168 164 160 165 172 189 189 172 175 145 138 193 169 170 150 134 135 146 151 161 162 170
268 262 254 249 247 240 235 238 243 225 220 213 207 195 174 183 192 189 170 168 169 194 189 180 184 194 192 195 187 185 194 162 163 162 151 140 137 130 143 152 153 159 166
275 270 264 255 247 244 236 230 230 217 210 207 201 188 194 190 193 182 169 171 171 179 200 203 212 206 204 195 204 186 188 189 87 162 159 136 155 134 135 141 157 170 174
287 263 262 261 251 243 239 233 211 203 200 197 196 185 178 177 179 180 175 178 189 189 222 234 230 218 208 203 202 199 176 181 122 176 191 120 165 137 143 157 164 175 187
305 283 270 282 262 252 226 205 203 199 191 192 190 186 184 183 183 183 187 183 196 204 220 242 223 196 199 206 204 217 202 185 167 183 200 188 169 159 153 184 187 193 203